Regional Weather Roundup
Issued by NWS Grand Forks, ND

Home | Current Version | Previous Version | Text Only | Print | Product List | Glossary On
Versions: 1 2 3 4 5 6 7 8 9 10 11 12 13 14 15 16 17 18 19 20 21 22 23 24 25 26 27 28 29 30 31 32 33 34 35 36 37 38 39 40 41 42 43 44 45 46 47 48 49 50
000
ASUS43 KFGF 260931
RWRFGF
PRAIRIE TO PINES  WEATHER ROUNDUP
NATIONAL WEATHER SERVICE EASTERN NORTH DAKOTA/GRAND FORKS ND
300 AM CST SUN FEB 26 2017

 **SATELLITE DATA USED TO AUGMENT SKY COVER AT AUTOMATED STATIONS**
 *****  WEATHER ACROSS EASTERN NORTH DAKOTA  *****

CITY           SKY/WX    TMP DP  RH WIND       PRES   REMARKS
GRAND FORKS    LGT SNOW  14   7  73 N9        29.74F WCI   2
GRAND FRKS AFB FLURRIES  12   9  85 N8        29.74F WCI   1
DEVILS LAKE    FLURRIES   7   5  91 NW6       29.73R WCI  -3
FARGO          CLOUDY    18  15  88 MISG      29.69S FOG
WAHPETON ARPT  CLOUDY   N/A N/A N/A S3        29.68F
$$

 ***** WEATHER ACROSS CENTRAL AND WESTERN NORTH DAKOTA  *****

CITY           SKY/WX    TMP DP  RH WIND       PRES   REMARKS
BISMARCK       FAIR      16  11  80 NW8       29.74R WCI   5
MINOT          FAIR       0  -4  83 SW6       29.73S WCI -12
JAMESTOWN      FAIR      18  16  92 N13       29.67R WCI   5
MINOT AFB      CLEAR     -6 -10  81 W7        29.73R WCI -20
GARRISON         N/A      4   1  88 NW7       29.72R WCI  -8
WILLISTON      CLOUDY     7   4  87 CALM      29.72S
DICKINSON      CLOUDY    14  11  87 E3        29.65S
HETTINGER      FAIR      12   9  87 N5        29.68R WCI   4
$$

 *****  OTHER AIRPORT OBSERVATIONS IN OUR AREA  *****

CITY           SKY/WX    TMP DP  RH WIND       PRES   REMARKS
WALHALLA       NOT AVBL
GRAFTON AIRPOR PTSUNNY   10   7  85 NW5       29.77S WCI   2
VALLEY CITY AR CLOUDY    16  16 100 NE17      29.70R WCI   0
CANDO          NOT AVBL
CAVALIER APRT    N/A      9   3  78 NW8       29.76S WCI  -4
GWINNER        PTSUNNY   28  28 100 SW17      29.67S WCI  16
ROLLA          FAIR      -2  -4  92 W5        29.70S WCI -12
 ***** THE ABOVE OBSERVATIONS ARE NON NWS ARE NOT QUALITY
       CONTROLLED AND MAY MIS-REPORT RAIN FOR SNOW...
$$

  *****  WEATHER ACROSS NORTHERN MINNESOTA  *****

CITY           SKY/WX    TMP DP  RH WIND       PRES   REMARKS
FLAG ISLAND    FAIR       9   0  66 NW12      29.69S WCI  -6
WARROAD        FAIR      10   3  72 NW5       29.71S WCI   2
ROSEAU         FAIR      10   7  85 NW5       29.72S WCI   2
HALLOCK        FAIR       9   3  78 NW6       29.75S WCI  -1
THF RVR FALLS    N/A     12   9  85 MISG        N/A
BAUDETTE       LGT SNOW  10   4  76 NW12      29.68S WCI  -5
WASKISH        LGT SNOW  12  10  92 NW6       29.68S WCI   3
CROOKSTON      LGT SNOW  14  10  85 N13       29.74S WCI   0
STEPHEN NDAWN    N/A     12   5  73 N6          N/A  WCI   3
GREENBUSH NDAW   N/A     10   7  85 NW5         N/A  WCI   2
$$
  *****  WEATHER ACROSS CENTRAL AND WEST MINNESOTA  *****

CITY           SKY/WX    TMP DP  RH WIND       PRES   REMARKS
FOSSTON        LGT SNOW  12  10  92 N14       29.68S WCI  -3
BEMIDJI        CLOUDY    18  14  84 N7        29.64S WCI   9
PARK RAPIDS    CLOUDY    22  18  85 S7        29.62F FOG     WCI  13
ELBOW LAKE     SNOW      21  21  98 W3        29.69S VSB 1/4
WADENA         FOG       19  18  93 CALM      29.64F VSB 1/2
DETROIT LAKES  CLOUDY    23  21  93 W6        29.65S FOG     WCI  16
MOORHEAD       LGT SNOW  19  18  93 N14       29.69S VSB 1   WCI   6
FERGUS FALLS   FOG       16  16 100 CALM      29.72F VSB<1/4
MORRIS MN      CLOUDY    25  25 100 CALM      29.69R
STAPLES        CLOUDY    16  16 100 CALM      29.66F
$$
  *****  WEATHER ELSEWHERE ACROSS MINNESOTA  *****

CITY           SKY/WX    TMP DP  RH WIND       PRES   REMARKS
DULUTH         LGT SNOW  25  22  88 SW13      29.63F FOG     WCI  14
INTRNTL FALLS  LGT SNOW  12   7  80 NW7       29.66S WCI   1
ELY            LGT SNOW  19  18  93 CALM      29.63S
CLOQUET        FLURRIES  25  21  86 SW6       29.64F WCI  18
WHEATON        FLURRIES  25  23  93 CALM      29.71F
BRAINERD       CLOUDY    23  22  96 SW5       29.66F WCI  17
HIBBING        CLOUDY    19  17  92 N3        29.63F
ALEXANDRIA     FAIR      24  22  91 W6        29.67S WCI  17
SAINT CLOUD    CLOUDY    26  21  81 SW9       29.70F WCI  17
MINNEAPOLIS    CLOUDY    25  16  68 S6        29.76F WCI  18
$$

  *****  WEATHER ACROSS SOUTH DAKOTA  *****

CITY           SKY/WX    TMP DP  RH WIND       PRES   REMARKS
SIOUX FALLS    FAIR      20  16  84 SW5       29.75F WCI  13
BROOKINGS      FAIR      19  17  92 S10       29.71S WCI   7
WATERTOWN      CLOUDY    22  21  96 SW9       29.69R WCI  12
HURON          MOCLDY    24  22  91 SW7       29.73R WCI  16
SISSETON         N/A     27  23  85 NW3       29.68S
ABERDEEN       FAIR      20  17  88 SW7       29.70F WCI  11
MITCHELL       FAIR      25  20  81 SW7       29.75F WCI  17
PIERRE         FAIR      25  22  88 W12       29.73R WCI  14
MOBRIDGE       FAIR      23  17  78 NW7       29.68R WCI  15
RAPID CITY     FAIR      16   8  71 W8        29.73R WCI   5
$$

  *****  SOME WEATHER IN NEARBY STATES *****

CITY           SKY/WX    TMP DP  RH WIND       PRES   REMARKS
GLASGOW MT     MOCLDY    17  13  84 SE9       29.64S WCI   6
GREAT FALLS MT CLOUDY    27  16  63 W12       29.70R WCI  17
CHEYENNE WY    FAIR      12   0  58 W10       29.75F WCI  -1
SCOTTSBLUFF NE FAIR       8   2  76 NW6       29.81S WCI  -2
OMAHA NE       MOCLDY    34  22  61 SW13      29.86S WCI  25
DES MOINES IA  FAIR      31  17  56 S13       29.87F WCI  21
DAVENPORT IA   CLOUDY    27  18  69 S12       29.98F WCI  17
CHICAGO IL     CLOUDY    24  17  74 S6        30.03F WCI  17
EAU CLAIRE WI  CLOUDY    22  15  75 S8        29.79F WCI  12
LA CROSSE WI   CLOUDY    28  18  66 S10       29.86F WCI  19
$$

  *****  SOME NATIONAL WEATHER *****

CITY           SKY/WX    TMP DP  RH WIND       PRES   REMARKS
LA GUARDIA NY  MOCLDY    43  26  51 NW23G30   29.77R
RALEIGH NC     FAIR      42  17  36 VRB3      30.00R
ATLANTA GA     FAIR      39  21  48 NW9       30.09R
NEW ORLEANS LA FAIR      54  38  54 E9        30.11R
OKLAHOMA CITY  FAIR      36  21  54 S12       29.95F
ALBUQUERQUE NM FAIR      41   9  26 W12       29.88S
SALT LAKE CITY FAIR      23  14  68 SE8       29.98S WCI  14
LOS ANGELES CA MOCLDY    52  44  74 W10       30.00F
BOISE ID       FAIR      30  18  60 SE8       29.93F WCI  22
SEATTLE WA     LGT RAIN  37  35  92 SE9       29.84F
$$

*** WEATHER ACROSS MANITOBA...SASKATCHEWAN AND ONTARIO ***
                ***ONTARIO***

CITY           SKY/WX    TMP DP  RH WIND       PRES   REMARKS
GERALDTON      CLEAR     -4  -8  84 VRB2      29.63S
THUNDER BAY    MOCLDY    10   7  85 W2        29.68F
SIOUX LOOKOUT  LGT SNOW  10   5  79 VRB2      29.58S
TORONTO        PTCLDY    25  12  58 W12       29.88R WCI  14
BIG TROUT LK   FLURRIES  -6  -9  84 W7        29.57S WCI -20
PICKLE LAKE    NOT AVBL
DRYDEN         LGT SNOW  10   7  85 W9        29.59R WCI  -2
KENORA         FLURRIES   7   3  85 NW7       29.64S WCI  -5
$$
                *** MANITOBA***

CITY           SKY/WX    TMP DP  RH WIND       PRES   REMARKS
BRANDON        PTCLDY    -2  -8  78 W9        29.73R WCI -18
DAUPHIN        CLEAR      1  -4  78 SW9       29.73F WCI -14
ISLAND LAKE    CRYSTALS  -6 -11  77 W3        29.64S
PILOT MOUND      N/A      1  -4  78 W7          N/A  WCI -11
THE PAS        CLEAR     -6 -11  77 SE3       29.66S
THOMPSON       CLEAR    -15 -18  84 CALM      29.65F
WINNIPEG       FLURRIES  10   5  79 VRB2      29.75S
LYNN LAKE      FLURRIES -17 -22  76 NW3       29.64R
CHURCHILL      CRYSTALS -22 -27  76 NW8       29.69R WCI -41
GILLAM         FLURRIES -17 -22  76 NW7       29.63S WCI -33
$$
                ***SASKATCHEWAN***

CITY           SKY/WX    TMP DP  RH WIND       PRES   REMARKS
ESTEVAN        CRYSTALS  -2  -6  84 SW7       29.71S WCI -16
KINDERSLEY     MOCLDY    16  10  79 N9        29.66R WCI   4
LLOYDMINSTER   CLOUDY    14   9  79 NW8       29.69R WCI   3
PRINCE ALBERT  CLEAR      0  -4  85 W3        29.65R
REGINA         MOCLDY     5   3  92 S6        29.67S WCI  -6
YORKTON        FLURRIES   5   1  85 SW3       29.67S
N. BATTLEFORD  PTCLDY     7   5  92 NW5       29.69R WCI  -2
LA RONGE       FLURRIES  12   7  79 W13       29.60R WCI  -3
SASKATOON      PTCLDY    10   7  85 W8        29.67R WCI  -1
SWIFT CURRENT  FLURRIES  16  14  93 SW8       29.60S WCI   5
$$
NOTE: THESE ARE AUTOMATED STATIONS WITH LIMITED QUALITY CONTROL
      "FAIR" INDICATES FEW OR NO CLOUDS BELOW 12,000 FEET WITH NO
      SIGNIFICANT WEATHER AND/OR OBSTRUCTIONS TO VISIBILITY.
      SKY/WX - SKY CONDITION AND SIGNIFICANT WEATHER.
      TMP - AIR TEMPERATURE.    DP   - DEWPOINT TEMPERATURE.
      RH  - RELATIVE HUMIDITY.  PRES - PRESSURE.
      HX  - HEAT INDEX.         WCI  - WIND CHILL INDEX.
$




USA.gov is the U.S. government's official web portal to all federal, state and local government web resources and services.